CMA CGM Herodote — MFEP — position and weather

sailwx.info

Track history (hours):
 
Tides and Currents Weather Stations Pressure Air Temp Water Temp Dewpoint Dewpoint Depression Visibility Wind Speed Wind Dir Waves Ship Positions

CMA CGM Herodote

Last reported at 2015-Apr-04 14:21 UTC. Time now 2015-Apr-19 07:55 UTC.
Position N 13°19' W 062°24'.
Warning: this ship's position is 14 days out of date.

Length 170 m; draft 8.6 m.

Type: Ship (hazmat cat A). MMSI: 235051085.

Date/timePositionNaut miles runAvg speedWind from/ knotsBaromVisibWave heightAir tempDewpointWater temp
2015-Apr-04 14:21N 13°19' W 062°24'26217.3
2015-Apr-03 23:15N 17°37' W 063°06'1418.0
2015-Apr-03 22:29N 17°51' W 063°06'10 9.9
2015-Apr-03 21:28N 18°01' W 063°03'0 0.0
2015-Apr-03 10:32N 18°00' W 063°03'3 3.3
2015-Apr-03 09:32N 17°58' W 063°05'  
2015-Mar-30 00:21N 34°50' W 033°35'1917.5
2015-Mar-29 23:16N 35°00' W 033°16'1317.6
2015-Mar-29 22:33N 35°07' W 033°03'1817.6
2015-Mar-29 21:30N 35°17' W 032°44'16518.0
2015-Mar-29 12:22N 36°47' W 029°53'5318.5
2015-Mar-29 09:31N 37°16' W 028°57'1818.5
2015-Mar-29 08:33N 37°25' W 028°38'1918.5
2015-Mar-29 07:33N 37°35' W 028°19'1918.6
2015-Mar-29 06:33N 37°45' W 027°59'1918.7
2015-Mar-29 05:34N 37°55' W 027°39'1918.5
2015-Mar-29 04:33N 38°05' W 027°19'1918.7
2015-Mar-29 03:33N 38°15' W 026°59'1918.6
2015-Mar-29 02:34N 38°26' W 026°40'1918.6
2015-Mar-29 01:34N 38°36' W 026°20'1918.6
2015-Mar-29 00:33N 38°47' W 026°00'1818.4
2015-Mar-28 23:33N 38°57' W 025°41'2118.6
2015-Mar-28 22:26N 39°09' W 025°19'1718.3
2015-Mar-28 21:30N 39°18' W 025°00'  
2015-Mar-26 12:33N 48°53' W 005°50'18516.3
2015-Mar-26 01:13N 49°51' W 001°19'1615.2
2015-Mar-26 00:08N 49°45' W 000°56'915.5
2015-Mar-25 23:34N 49°41' W 000°43'1515.4
2015-Mar-25 22:34N 49°35' W 000°21'1514.9
2015-Mar-25 21:34N 49°30' E 000°00'7 6.5
2015-Mar-25 20:32N 49°29' E 000°10'0 0.0
2015-Mar-25 19:32N 49°29' E 000°10'0 0.0
2015-Mar-25 18:32N 49°29' E 000°10'0 0.0
2015-Mar-25 17:32N 49°29' E 000°10'0 0.0
2015-Mar-25 16:32N 49°29' E 000°10'0 0.0
2015-Mar-25 15:32N 49°29' E 000°10'0 0.0
2015-Mar-25 14:32N 49°29' E 000°10'  
Track history (hours):
 
Tides and Currents Weather Stations Pressure Air Temp Water Temp Dewpoint Dewpoint Depression Visibility Wind Speed Wind Dir Waves Ship Positions

CMA CGM Herodote

Last reported at 2015-Apr-04 14:21 UTC. Time now 2015-Apr-19 07:55 UTC.
Position N 13°19' W 062°24'.
Warning: this ship's position is 14 days out of date.

Length 170 m; draft 8.6 m.

Type: Ship (hazmat cat A). MMSI: 235051085.

Date/timePositionNaut miles runAvg speedWind from/ knotsBaromVisibWave heightAir tempDewpointWater temp
2015-Apr-04 14:21N 13°19' W 062°24'26217.3
2015-Apr-03 23:15N 17°37' W 063°06'1418.0
2015-Apr-03 22:29N 17°51' W 063°06'10 9.9
2015-Apr-03 21:28N 18°01' W 063°03'0 0.0
2015-Apr-03 10:32N 18°00' W 063°03'3 3.3
2015-Apr-03 09:32N 17°58' W 063°05'  
2015-Mar-30 00:21N 34°50' W 033°35'1917.5
2015-Mar-29 23:16N 35°00' W 033°16'1317.6
2015-Mar-29 22:33N 35°07' W 033°03'1817.6
2015-Mar-29 21:30N 35°17' W 032°44'16518.0
2015-Mar-29 12:22N 36°47' W 029°53'5318.5
2015-Mar-29 09:31N 37°16' W 028°57'1818.5
2015-Mar-29 08:33N 37°25' W 028°38'1918.5
2015-Mar-29 07:33N 37°35' W 028°19'1918.6
2015-Mar-29 06:33N 37°45' W 027°59'1918.7
2015-Mar-29 05:34N 37°55' W 027°39'1918.5
2015-Mar-29 04:33N 38°05' W 027°19'1918.7
2015-Mar-29 03:33N 38°15' W 026°59'1918.6
2015-Mar-29 02:34N 38°26' W 026°40'1918.6
2015-Mar-29 01:34N 38°36' W 026°20'1918.6
2015-Mar-29 00:33N 38°47' W 026°00'1818.4
2015-Mar-28 23:33N 38°57' W 025°41'2118.6
2015-Mar-28 22:26N 39°09' W 025°19'1718.3
2015-Mar-28 21:30N 39°18' W 025°00'  
2015-Mar-26 12:33N 48°53' W 005°50'18516.3
2015-Mar-26 01:13N 49°51' W 001°19'1615.2
2015-Mar-26 00:08N 49°45' W 000°56'915.5
2015-Mar-25 23:34N 49°41' W 000°43'1515.4
2015-Mar-25 22:34N 49°35' W 000°21'1514.9
2015-Mar-25 21:34N 49°30' E 000°00'7 6.5
2015-Mar-25 20:32N 49°29' E 000°10'0 0.0
2015-Mar-25 19:32N 49°29' E 000°10'0 0.0
2015-Mar-25 18:32N 49°29' E 000°10'0 0.0
2015-Mar-25 17:32N 49°29' E 000°10'0 0.0
2015-Mar-25 16:32N 49°29' E 000°10'0 0.0
2015-Mar-25 15:32N 49°29' E 000°10'0 0.0
2015-Mar-25 14:32N 49°29' E 000°10'  

Dump ship's entire track history